Weather in Koloksha

Russia / Vladimir Oblast     56°03′39″N   40°11′03″E
temp.,
°C
wind,
m/s
gust,
m/s
humid.,
%
clouds,
%
prec.,
mm/h
press.,
hPa
HPBL,
m
19 january, wed
wed1900:00−13nw399667 0.0 1014180
03:00−19wnw2210076 0.0 101613
06:00−20wnw2210077 0.0 101613
09:00−21wnw2110076 0.0 101710
12:00−12w129491 0.0 1017105
15:00−11ssw25955 0.0 1016122
18:00−15ssw379896 0.0 101692
21:00−14ssw3109272 0.0 1014158
20 january, thu
thu2000:00−12ssw5138799 0.0 1013260
03:00−11ssw51493100 0.0 1011323
06:00−9s61494100 0.0 1010379
09:00−8s61494100 0.1 1008397
12:00−7s61494100 0.1 1008434
15:00−6s61493100 0.2 1007505
18:00−7s71692100 0.1 1006570
21:00−8s71692100 0.1 1006524
21 january, fri
fri2100:00−9s61591100 0.1 1006543
03:00−9s61593100 0.3 1005516
06:00−8sse51393100 0.5 1005503
09:00−8sse51394100 1.0 1005506
12:00−7sse51294100 0.5 1004543
15:00−7se61294100 1.4 1003739
18:00−8se51392100 0.3 1003598
21:00−7se5129397 0.4 1003506
22 january, sat
sat2200:00−7ese51195100 0.5 1004574
03:00−7se4109494 1.4 1005476
06:00−8sse389698 0.1 1007219
09:00−10se4109585 0.1 1010267
12:00−8se389592 0.0 1013319
15:00−7ese3794100 0.1 1014328
18:00−11ese259779 0.1 1017112
21:00−15e2210099 0.1 102032
23 january, sun
sun2300:00−18ene2210099 0.0 102220
03:00−15ene1198100 0.1 102428
06:00−20ne2210094 0.0 102527
09:00−17ne229877 0.1 102755
12:00−11nne129485 0.1 1029127
15:00−11n239673 0.1 1030114
18:00−19n1110088 0.0 10329
21:00−21nne11100100 0.0 10349